Location: *
(53.4003°S, 165.3236°W)
Time: 02:57:52
(UTC+00:00)

Cosmos 2151 Rocket - Pass Details

Date: 11 December 2023
Orbit: 615 x 640 km, 82.5° (Epoch: 24 February)

Event Time Altitude Azimuth Distance (km) Brightness Sun altitude
Exits shadow 12:21:37 16° 340° (NNW) 1,685 5.1 -11.3°
Maximum altitude 12:25:14 71° 257° (WSW) 696 3.8 -11.1°
Drops below altitude 10° 12:29:51 10° 172° (S) 2,077 7.7 -10.9°
Sets 12:32:08 0° 170° (S) 2,992 8.9 -10.7°
